W7YP Weather Reports


time (UTC)temp
C
wind
direction
speed
KPH
gust
KPH
rain 1hr
cm
rain 24hr
cm
rain mn
cm
humidity
%
barometer
mb
20260904162442 8 302 0.0 0.0 0.00 0.41 0.08 98 1014.9
20260904161945 8 302 0.0 0.0 0.00 0.41 0.08 98 1014.9
20260904161438 8 302 0.0 0.0 0.00 0.43 0.08 98 1014.7
20260904160938 8 302 0.0 0.0 0.03 0.43 0.08 98 1014.6
20260904160423 8 302 0.0 0.0 0.03 0.43 0.08 98 1014.6
20260904155923 8 302 0.0 0.0 0.03 0.43 0.08 97 1014.5
20260904155419 8 302 0.0 0.0 0.03 0.43 0.08 97 1014.4
20260904154914 8 302 0.0 0.0 0.05 0.43 0.08 97 1014.4
20260904154633 8 302 0.0 0.0 0.05 0.43 0.08 97 1014.4
20260904153914 8 302 0.0 0.0 0.05 0.43 0.08 97 1014.3
20260904153633 8 302 0.0 0.0 0.05 0.43 0.08 97 1014.4
20260904152914 8 302 0.0 0.0 0.05 0.43 0.08 98 1014.5
20260904152411 8 302 0.0 0.0 0.05 0.43 0.08 98 1014.4
20260904151904 8 302 0.0 0.0 0.05 0.43 0.08 98 1014.4
20260904151624 8 302 0.0 0.0 0.05 0.43 0.08 98 1014.4
20260904150904 8 302 0.0 0.0 0.03 0.41 0.05 97 1014.4
20260904150350 8 302 0.0 0.0 0.03 0.41 0.05 97 1014.4
20260904145850 8 302 0.0 0.0 0.05 0.41 0.05 97 1014.4
20260904145350 8 302 0.0 0.0 0.05 0.41 0.05 97 1014.3
20260904144849 8 302 0.0 0.0 0.03 0.41 0.03 97 1014.3
20260904144345 8 302 0.0 0.0 0.03 0.41 0.03 97 1014.1
20260904144107 8 302 0.0 0.0 0.03 0.41 0.03 97 1014.0
20260904143341 7 302 0.0 0.0 0.03 0.41 0.03 97 1014.0
20260904142837 7 302 0.0 0.0 0.03 0.41 0.03 97 1013.9
20260904142821 7 302 0.0 0.0 0.03 0.41 0.03 97 1013.7
20260904142058 7 302 0.0 0.0 0.03 0.41 0.03 97 1013.6
20260904141555 7 302 0.0 0.0 0.03 0.43 0.03 97 1013.5
20260904140836 7 302 0.0 0.0 0.03 0.43 0.03 97 1013.5
20260904140332 7 302 0.0 0.0 0.03 0.46 0.03 97 1013.5
20260904140054 7 302 0.0 0.0 0.00 0.43 0.00 97 1013.4
20260904135317 7 302 0.0 0.0 0.00 0.43 0.00 97 1013.3
20260904134811 7 302 0.0 0.0 0.00 0.46 0.00 97 1013.3
20260904134311 7 302 0.0 0.0 0.00 0.46 0.00 97 1013.3
20260904133813 7 302 0.0 0.0 0.00 0.46 0.00 97 1013.1
20260904133307 7 302 0.0 0.0 0.00 0.46 0.00 96 1013.1
20260904132807 7 302 0.0 0.0 0.00 0.46 0.00 96 1013.1
20260904132751 7 302 0.0 0.0 0.00 0.48 0.00 96 1013.1
20260904132020 7 302 0.0 0.0 0.00 0.48 0.00 96 1013.0
20260904131258 7 302 0.0 0.0 0.00 0.48 0.00 96 1013.0
20260904130758 7 302 0.0 0.0 0.00 0.48 0.00 96 1012.9
20260904130258 7 302 0.0 0.0 0.00 0.48 0.00 96 1012.9
20260904125801 7 302 0.0 0.0 0.00 0.48 0.00 96 1012.8
20260904125519 7 302 0.0 0.0 0.00 0.48 0.00 100 1012.7
20260904124753 7 302 0.0 0.0 0.00 0.48 0.00 96 1012.7
20260904124249 7 302 0.0 0.0 0.00 0.48 0.00 96 1012.4
20260904123744 7 302 0.0 0.0 0.00 0.48 0.00 96 1012.4
20260904123239 7 302 0.0 0.0 0.00 0.48 0.00 96 1012.5
20260904122729 7 302 0.0 0.0 0.00 0.48 0.00 96 1012.7
20260904122214 7 302 0.0 0.0 0.00 0.48 0.00 96 1012.6
20260904121714 7 302 0.0 3.2 0.00 0.48 0.00 96 1012.6
20260904121214 7 302 0.0 9.7 0.00 0.48 0.00 96 1012.6
20260904120714 7 296 0.0 14.5 0.00 0.48 0.00 97 1012.5
20260904120210 7 350 1.6 16.1 0.00 0.48 0.00 97 1012.5
20260904115930 7 233 3.2 16.1 0.00 0.48 0.00 97 1012.4
20260904115210 6 348 1.6 9.7 0.00 0.48 0.00 97 1012.0
20260904114710 6 299 1.6 8.0 0.00 0.48 0.00 97 1011.7
20260904114656 6 294 0.0 4.8 0.00 0.48 0.00 97 1011.6
20260904113706 6 207 0.0 0.0 0.00 0.48 0.00 97 1011.4
20260904113424 6 207 0.0 0.0 0.00 0.48 0.00 97 1011.1
20260904112920 6 207 0.0 0.0 0.00 0.48 0.00 97 1011.0
20260904112156 6 207 0.0 0.0 0.00 0.48 0.00 97 1010.7
20260904111656 6 207 0.0 0.0 0.00 0.48 0.00 97 1010.8
20260904111156 6 207 0.0 0.0 0.00 0.48 0.00 97 1010.6
20260904110641 6 207 0.0 0.0 0.00 0.48 0.00 97 1010.8
20260904110141 6 207 0.0 0.0 0.00 0.48 0.00 97 1010.8
20260904105631 6 207 0.0 0.0 0.00 0.48 0.00 97 1010.2
20260904105129 7 207 0.0 0.0 0.00 0.48 0.00 97 1009.7
20260904104612 7 207 0.0 0.0 0.00 0.48 0.00 97 1009.3
20260904104107 7 207 0.0 0.0 0.00 0.48 0.00 97 1009.3
20260904103546 7 207 0.0 0.0 0.00 0.48 0.00 97 1009.8
20260904103044 7 207 0.0 1.6 0.00 0.48 0.00 97 1009.7
20260904102542 6 207 0.0 1.6 0.00 0.48 0.00 97 1009.5
20260904102306 6 207 0.0 0.0 0.00 0.48 0.00 97 1009.2
20260904101539 6 207 0.0 0.0 0.00 0.48 0.00 97 1009.3
20260904101027 6 207 0.0 0.0 0.00 0.48 0.00 97 1009.2
20260904100527 6 207 0.0 0.0 0.00 0.48 0.00 97 1009.1
20260904100023 6 207 0.0 0.0 0.00 0.48 0.00 97 1008.9
20260904095523 7 207 0.0 0.0 0.00 0.48 0.00 97 1008.9
20260904095023 7 207 0.0 0.0 0.00 0.48 0.00 97 1008.9
20260904094523 7 207 0.0 0.0 0.00 0.48 0.00 97 1008.9
20260904094024 7 207 0.0 0.0 0.00 0.48 0.00 97 1009.0
20260904093523 7 207 0.0 0.0 0.00 0.48 0.00 97 1009.0
20260904093018 7 207 0.0 0.0 0.00 0.48 0.00 97 1008.9
20260904092508 7 207 0.0 0.0 0.00 0.48 0.00 97 1008.8
20260904092006 7 207 0.0 0.0 0.00 0.48 0.00 97 1008.9
20260904091726 7 207 0.0 0.0 0.00 0.48 0.00 97 1009.1
20260904090951 7 207 0.0 0.0 0.00 0.48 0.00 97 1009.2
20260904090444 7 207 0.0 0.0 0.00 0.48 0.00 97 1009.3
20260904085944 7 207 0.0 0.0 0.00 0.48 0.00 97 1009.3
20260904085434 7 207 0.0 0.0 0.00 0.48 0.00 97 1009.3
20260904084934 7 207 0.0 0.0 0.00 0.48 0.00 97 1009.5
20260904084434 7 207 0.0 0.0 0.00 0.48 0.00 97 1009.3
20260904083933 7 207 0.0 0.0 0.00 0.48 0.00 96 1009.5
20260904083420 7 207 0.0 0.0 0.00 0.48 0.00 96 1009.6
20260904083132 7 207 0.0 0.0 0.00 0.48 0.00 96 1009.6
20260904082410 7 207 0.0 0.0 0.00 0.48 0.00 96 1009.7
20260904081910 7 207 0.0 0.0 0.00 0.48 0.00 96 1009.7
20260904081410 7 207 0.0 1.6 0.00 0.48 0.00 96 1009.7
20260904081128 7 207 0.0 1.6 0.00 0.48 0.00 96 1009.7
20260904080401 7 207 0.0 0.0 0.00 0.48 0.00 96 1009.8
20260904075856 7 207 0.0 0.0 0.00 0.48 0.00 96 1009.8
20260904075340 7 207 0.0 0.0 0.00 0.48 0.00 96 1009.8
20260904074840 7 207 0.0 0.0 0.00 0.48 0.00 96 1009.8
20260904074341 7 207 0.0 0.0 0.00 0.48 0.00 96 1009.8
20260904074105 7 207 0.0 1.6 0.00 0.48 0.00 96 1009.9
20260904073336 7 207 0.0 1.6 0.00 0.48 0.00 96 1009.9
20260904072837 7 207 0.0 0.0 0.00 0.48 0.00 96 1009.9
20260904072334 7 207 0.0 1.6 0.00 0.48 0.00 96 1009.8
20260904071824 7 207 0.0 1.6 0.00 0.48 0.00 96 1009.9
20260904071316 8 207 0.0 0.0 0.00 0.48 0.00 96 1010.1
20260904070816 8 207 0.0 0.0 0.00 0.48 0.00 96 1009.9
20260904070317 8 207 0.0 0.0 0.00 0.48 0.00 96 1010.0
20260904065817 8 207 0.0 0.0 0.00 0.48 0.00 96 1010.1
20260904065307 8 207 0.0 4.8 0.00 0.48 0.00 96 1010.0
20260904064803 8 207 0.0 4.8 0.00 0.48 0.00 96 1010.0
20260904064302 8 207 0.0 0.0 0.00 0.48 0.00 96 1010.0
20260904063758 8 207 0.0 0.0 0.00 0.48 0.00 96 1010.1
20260904063518 8 207 0.0 0.0 0.00 0.48 0.00 96 1010.2
20260904062742 8 207 0.0 0.0 0.00 0.48 0.00 96 1010.1
20260904062243 8 207 0.0 0.0 0.00 0.48 0.00 96 1010.2
20260904062002 8 207 0.0 0.0 0.00 0.48 0.00 96 1010.3
20260904061243 8 207 0.0 0.0 0.00 0.48 0.00 96 1010.6
20260904061007 8 207 0.0 0.0 0.00 0.48 0.00 96 1010.7
20260904060238 8 207 0.0 0.0 0.00 0.48 0.00 96 1010.6
20260904055739 8 207 0.0 0.0 0.00 0.48 0.48 96 1010.6
20260904055239 8 207 0.0 0.0 0.00 0.48 0.48 96 1010.7
20260904054742 8 207 0.0 0.0 0.00 0.48 0.48 96 1010.7
20260904054229 8 207 0.0 0.0 0.00 0.48 0.48 96 1010.8
20260904053729 8 207 0.0 0.0 0.00 0.48 0.48 96 1010.8
20260904053219 8 207 0.0 0.0 0.00 0.48 0.48 96 1010.9
20260904052714 8 207 0.0 0.0 0.00 0.48 0.48 96 1011.0
20260904052217 8 207 0.0 0.0 0.00 0.48 0.48 96 1011.0
20260904051937 8 207 0.0 0.0 0.00 0.48 0.48 96 1010.9
20260904051215 8 207 0.0 0.0 0.00 0.48 0.48 96 1011.0
20260904050716 8 207 0.0 0.0 0.00 0.48 0.48 96 1011.1
20260904050215 8 207 0.0 0.0 0.00 0.48 0.48 96 1011.2
20260904045710 8 207 0.0 0.0 0.00 0.48 0.48 96 1011.1
20260904045201 8 207 0.0 0.0 0.00 0.48 0.48 96 1011.2
20260904044704 8 207 0.0 0.0 0.00 0.48 0.48 96 1011.2
20260904044201 8 207 0.0 0.0 0.00 0.48 0.48 95 1011.4
20260904043659 8 207 0.0 0.0 0.00 0.48 0.48 95 1011.5
20260904043404 8 207 0.0 0.0 0.00 0.48 0.48 95 1011.5
20260904043245 8 207 0.0 0.0 0.00 0.48 0.48 95 1011.5
20260904042151 8 207 0.0 0.0 0.00 0.48 0.48 95 1011.6
20260904041651 9 207 0.0 0.0 0.00 0.48 0.48 95 1011.6
20260904041152 9 207 0.0 0.0 0.00 0.48 0.48 95 1011.4
20260904040655 9 207 0.0 0.0 0.00 0.48 0.48 95 1011.5
20260904040150 9 207 0.0 1.6 0.00 0.48 0.48 95 1011.6
20260904035647 9 207 0.0 1.6 0.00 0.48 0.48 95 1011.6
20260904035404 9 207 0.0 1.6 0.00 0.48 0.48 94 1011.8
20260904034645 9 205 0.0 0.0 0.00 0.48 0.48 94 1011.7
20260904034138 9 205 0.0 0.0 0.00 0.48 0.48 94 1011.8
20260904033638 10 205 0.0 0.0 0.00 0.48 0.48 94 1011.9
20260904033138 10 205 0.0 0.0 0.00 0.48 0.48 94 1012.0
20260904032638 10 205 0.0 0.0 0.00 0.48 0.48 94 1012.1
20260904032141 10 205 0.0 0.0 0.00 0.48 0.48 94 1012.0
20260904031616 10 205 0.0 0.0 0.00 0.48 0.48 94 1011.9
20260904031113 10 205 0.0 1.6 0.00 0.48 0.48 94 1012.0
20260904030608 10 205 0.0 1.6 0.00 0.48 0.48 94 1012.0
20260904030104 10 205 0.0 0.0 0.00 0.48 0.48 93 1012.1
20260904025603 10 205 0.0 1.6 0.00 0.48 0.48 93 1012.1
20260904025049 11 205 0.0 1.6 0.00 0.48 0.48 93 1012.0
20260904024804 11 205 0.0 0.0 0.00 0.48 0.48 93 1012.1
20260904024256 11 205 0.0 0.0 0.00 0.48 0.48 93 1012.0
20260904023542 11 205 0.0 0.0 0.00 0.48 0.48 93 1012.0
20260904023039 11 205 0.0 0.0 0.00 0.48 0.48 94 1011.9
20260904022524 11 205 0.0 0.0 0.00 0.48 0.48 94 1011.9
20260904022019 11 205 0.0 0.0 0.00 0.48 0.48 94 1011.9
20260904021519 11 205 0.0 0.0 0.00 0.48 0.48 94 1011.9
20260904021009 12 205 0.0 0.0 0.00 0.48 0.48 94 1011.9
20260904020738 12 205 0.0 0.0 0.00 0.48 0.48 94 1012.0
20260904020010 12 205 0.0 1.6 0.00 0.48 0.48 94 1011.9
20260904015505 12 205 0.0 1.6 0.00 0.48 0.48 94 1012.0
20260904015005 12 205 0.0 3.2 0.00 0.48 0.48 95 1012.0
20260904014505 12 205 0.0 3.2 0.00 0.48 0.48 94 1011.9
20260904013956 12 205 0.0 0.0 0.00 0.48 0.48 94 1011.9
20260904013455 12 205 0.0 0.0 0.00 0.48 0.48 95 1011.9
20260904012936 12 205 0.0 0.0 0.00 0.48 0.48 94 1012.0
20260904012437 12 205 0.0 0.0 0.00 0.48 0.48 94 1011.9
20260904011936 12 205 0.0 0.0 0.00 0.48 0.48 94 1012.0
20260904011426 13 205 0.0 0.0 0.00 0.48 0.48 94 1012.1
20260904011408 13 205 0.0 0.0 0.00 0.48 0.48 94 1012.0
20260904010425 13 205 0.0 0.0 0.00 0.48 0.48 94 1011.9
20260904005913 13 205 0.0 0.0 0.00 0.51 0.48 94 1011.9
20260904005406 13 205 0.0 0.0 0.00 0.51 0.48 94 1012.0
20260904004906 13 205 0.0 0.0 0.00 0.51 0.48 94 1012.0
20260904004407 13 205 0.0 0.0 0.00 0.53 0.48 94 1012.1
20260904003903 13 205 0.0 0.0 0.00 0.53 0.48 94 1012.4
20260904003402 13 205 0.0 0.0 0.00 0.56 0.48 94 1012.2
20260904002847 13 205 0.0 0.0 0.00 0.56 0.48 94 1012.4
20260904002350 13 205 0.0 0.0 0.00 0.58 0.48 94 1012.5
20260904001847 13 205 0.0 0.0 0.00 0.58 0.48 94 1012.2
20260904001343 13 205 0.0 0.0 0.00 0.61 0.48 94 1012.2
20260904000842 13 205 0.0 0.0 0.00 0.64 0.48 94 1012.1
20260904000343 13 205 0.0 3.2 0.00 0.69 0.48 94 1012.1
20260903235844 13 205 0.0 3.2 0.00 0.71 0.48 95 1012.2
20260903235343 13 205 0.0 0.0 0.00 0.74 0.48 95 1012.1
20260903234839 13 205 0.0 0.0 0.00 0.81 0.48 94 1012.2
20260903234338 13 205 0.0 0.0 0.00 0.86 0.48 94 1012.1
20260903233839 13 205 0.0 0.0 0.00 0.89 0.48 94 1012.4
20260903233554 13 205 0.0 0.0 0.00 0.91 0.48 94 1012.2
20260903232834 13 205 0.0 0.0 0.00 0.97 0.48 94 1012.2
20260903232334 13 205 0.0 0.0 0.00 0.99 0.48 94 1012.1
20260903231829 13 205 0.0 0.0 0.00 1.02 0.48 94 1012.2
20260903231806 13 205 0.0 0.0 0.00 1.04 0.48 94 1012.4
20260903230826 13 205 0.0 4.8 0.00 1.04 0.48 92 1012.4
20260903230325 13 205 0.0 4.8 0.00 1.07 0.48 91 1012.2
20260903225820 14 153 0.0 0.0 0.00 1.09 0.48 94 1012.4
20260903225320 14 153 0.0 0.0 0.00 1.09 0.48 94 1012.1
20260903224822 14 153 0.0 0.0 0.00 1.09 0.48 94 1012.2
20260903224311 14 153 0.0 0.0 0.03 1.09 0.48 94 1012.2
20260903223815 14 153 0.0 1.6 0.03 1.12 0.48 94 1012.2
20260903223300 13 153 0.0 4.8 0.03 1.12 0.48 94 1012.1
20260903222802 13 138 0.0 4.8 0.03 1.14 0.48 94 1012.2
20260903222301 13 199 0.0 0.0 0.03 1.19 0.48 93 1012.1
20260903221800 13 199 0.0 1.6 0.03 1.22 0.48 93 1012.1
20260903221301 13 199 0.0 6.4 0.03 1.24 0.48 92 1012.1
20260903220753 13 199 0.0 6.4 0.03 1.27 0.48 94 1012.0
20260903220512 13 242 0.0 3.2 0.03 1.30 0.48 95 1012.0
20260903215747 13 242 0.0 6.4 0.03 1.35 0.48 95 1012.1
20260903215241 13 242 0.0 6.4 0.03 1.40 0.48 95 1012.1
20260903214737 13 315 0.0 0.0 0.03 1.47 0.48 96 1012.0
20260903214232 13 315 0.0 0.0 0.00 1.52 0.46 96 1012.1
20260903213952 12 315 0.0 0.0 0.03 1.55 0.46 95 1012.1
20260903213227 12 315 0.0 0.0 0.05 1.55 0.46 95 1012.1
20260903212728 12 315 0.0 0.0 0.08 1.55 0.46 95 1012.0
20260903212227 12 315 0.0 0.0 0.10 1.57 0.46 95 1012.2
20260903211727 12 315 0.0 0.0 0.10 1.57 0.46 95 1012.2
20260903211227 12 315 0.0 1.6 0.10 1.57 0.46 95 1012.2
20260903210723 12 315 0.0 1.6 0.10 1.57 0.46 95 1012.1
20260903210223 12 315 0.0 0.0 0.10 1.57 0.46 95 1012.1
20260903205712 12 315 0.0 3.2 0.10 1.57 0.46 94 1012.0
20260903205213 12 315 0.0 3.2 0.10 1.57 0.46 94 1012.0
20260903204703 12 316 0.0 0.0 0.15 1.57 0.46 94 1012.0
20260903204205 12 316 0.0 0.0 0.15 1.57 0.46 94 1012.0
20260903203703 12 316 0.0 0.0 0.15 1.55 0.43 94 1012.0
20260903203203 12 316 0.0 4.8 0.20 1.52 0.43 94 1012.2
20260903202701 12 316 1.6 4.8 0.23 1.50 0.38 94 1012.4
20260903202159 12 196 0.0 4.8 0.20 1.47 0.36 94 1012.4
20260903201659 12 199 0.0 0.0 0.20 1.47 0.36 94 1012.2
20260903201200 12 199 0.0 0.0 0.20 1.47 0.36 93 1012.4
20260903200654 12 199 0.0 0.0 0.20 1.47 0.36 92 1012.4
20260903200357 12 199 0.0 0.0 0.20 1.47 0.36 91 1012.6
20260903195634 12 199 0.0 0.0 0.20 1.47 0.36 90 1012.6
20260903195619 12 199 0.0 0.0 0.20 1.47 0.36 90 1012.7
20260903194851 13 199 0.0 0.0 0.15 1.42 0.30 90 1012.7
20260903194124 13 199 0.0 0.0 0.15 1.42 0.30 89 1012.6
20260903193625 13 199 0.0 0.0 0.10 1.37 0.28 89 1012.6
20260903193125 13 199 0.0 0.0 0.03 1.30 0.20 89 1012.6
20260903192625 13 199 0.0 8.0 0.00 1.27 0.15 87 1012.5
20260903192121 13 199 0.0 8.0 0.00 1.27 0.15 85 1012.6
20260903191615 13 246 0.0 4.8 0.00 1.27 0.15 85 1012.6
20260903191327 13 188 0.0 4.8 0.00 1.27 0.15 87 1012.7
20260903190556 13 188 0.0 0.0 0.00 1.27 0.15 87 1012.6
20260903190303 13 188 0.0 4.8 0.00 1.27 0.15 88 1012.6
20260903185542 13 188 0.0 4.8 0.00 1.27 0.15 87 1012.6
20260903185038 13 188 0.0 4.8 0.00 1.27 0.15 88 1012.6
20260903184535 13 145 0.0 4.8 0.00 1.27 0.15 89 1012.4
20260903184250 13 140 0.0 4.8 0.00 1.27 0.15 89 1012.4
20260903183524 13 145 1.6 4.8 0.00 1.27 0.15 91 1012.4
20260903183019 12 340 1.6 4.8 0.00 1.27 0.15 92 1012.2
20260903182517 12 223 0.0 3.2 0.00 1.27 0.15 93 1012.2
20260903182016 12 223 0.0 6.4 0.00 1.27 0.15 92 1012.4
20260903181518 12 231 1.6 11.3 0.00 1.27 0.15 92 1012.2
20260903181017 12 259 0.0 11.3 0.00 1.27 0.15 91 1012.2
20260903180738 12 247 0.0 6.4 0.00 1.27 0.15 92 1012.6
20260903180017 12 176 0.0 6.4 0.00 1.27 0.15 91 1012.6
20260903175512 12 176 1.6 6.4 0.00 1.27 0.15 92 1012.6
20260903174957 12 325 0.0 8.0 0.00 1.27 0.15 92 1012.6
20260903174453 12 171 1.6 11.3 0.00 1.27 0.15 93 1012.5
20260903173952 12 329 1.6 12.9 0.00 1.27 0.15 94 1012.6
20260903173454 12 317 3.2 12.9 0.00 1.27 0.15 95 1012.6
20260903173217 12 249 0.0 11.3 0.00 1.27 0.15 95 1012.5
20260903172448 12 218 0.0 14.5 0.00 1.27 0.15 95 1012.4
20260903171951 11 204 1.6 14.5 0.00 1.27 0.15 96 1012.4
20260903171715 12 169 3.2 12.9 0.03 1.27 0.15 97 1012.1
20260903170938 11 199 1.6 8.0 0.03 1.27 0.15 98 1012.1
20260903170429 11 145 3.2 8.0 0.03 1.27 0.15 98 1012.1
20260903165924 11 153 0.0 4.8 0.03 1.27 0.15 98 1012.0
20260903165424 11 138 0.0 4.8 0.03 1.27 0.15 98 1012.0
20260903164924 11 126 0.0 6.4 0.03 1.27 0.15 97 1011.9
20260903164415 11 92 1.6 6.4 0.03 1.27 0.15 98 1012.0
20260903163914 11 29 1.6 4.8 0.03 1.27 0.15 98 1011.9
20260903163416 11 25 0.0 0.0 0.03 1.27 0.15 98 1011.8
20260903162909 11 25 0.0 0.0 0.03 1.27 0.15 98 1011.8